Location: Bodest
(46.3000°N, 22.5667°E)
Time: 22:35:11
(UTC+00:00)

CZ-4B R/B - Pass Details

Date: 16 October 2021
Orbit: 808 x 882 km, 99.1° (Epoch: 04 December)

Event Time Altitude Azimuth Distance (km) Brightness Sun altitude
Rises 16:50:53 0° 175° (S) 3,445 6.3 -12.7°
Reaches altitude 10° 16:53:17 10° 179° (S) 2,519 5.7 -13.2°
Maximum altitude 16:58:49 59° 258° (WSW) 1,016 4.0 -14.1°
Drops below altitude 10° 17:04:26 10° 338° (NNW) 2,552 6.0 -15.1°
Sets 17:06:53 0° 342° (NNW) 3,494 6.7 -15.5°
